STARLINK-31961, 59894

Orbit data source: Space-Track

STARLINK-31961, 59894 is a payload satellite owned by SpaceX/Seattle (US) in LEO that was launched on Tue, 28 May 2024 UTC via an FALCON 9 launch vehicle from the Air Force Eastern Test Range (AFETR). Payload-class satellites include a variety of spacecraft equipped with specific instruments for various scientific and technological missions. These include communications satellites like Starlink; space stations such as the ISS; scientific satellites like the Hubble; Earth observation satellites from companies like Planet Labs, Umbra, and HawkEye 360; GPS; miniature CubeSats for education and research; and military/defense satellites.

Loading next visibility...
Identifier
59894, 2024-100K
Orbit
LEO
Country
Flag of USUS
Related business
Manufacturer
SpaceX/Seattle
Mission
Operational spacecraft
Bus & Motor
STARLINK V2M, Unknown motor
Mass
730 kg wet, ~700 kg dry
Launch date (UTC)
2024-05-28 (2 years ago)
Launch vehicle
FALCON 9
Launch site
Air Force Eastern Test Range (AFETR)
Object type
Payload
Rocket body
Debris
Shape & HBR
Unknown shape, 17.7 m
Radar Cross Section
Large (>1 m²)

Expand to show TLE details & history
Last TLE update: 2 days ago

TLE from 2 days ago
0 STARLINK-31961
1 59894U 24100K   26035.11967209  .00005315  00000-0  20276-3 0  9997
2 59894  42.9937 307.9882 0000935  95.0062 265.0896 15.27543138 96108
Epoch: 2026-02-04T02:52Z
TLE epoch observation values (Epoch: 2026-02-04T02:52:19.668Z)
Latitude
-0.00004°
Longitude
130.61538°
Altitude
482.989 km
Speed
7.626 km/s
True Right ascension
20h 31m 57s
True Declination
0° 00' 00"
Sunlit
Object was in daylight at epoch
Visualization orbit readout
Latitude
Unknown
Longitude
Unknown
Altitude
Unknown
Speed
Unknown
Apparent Right ascension
Unknown
Apparent Declination
Unknown
Sunlit
N/A
Visualization observer readout
Local Sidereal Time
17:14:38
Azimuth
Unknown
Elevation
Unknown
Doppler factor
Unknown
Orbital elements
Apogee altitude
485.747 km
Perigee altitude
484.464 km
Semi-major axis
6,863.243 km
Eccentricity
0.00009
Inclination
42.9937°
RAAN
307.9882°
Arg. of periapsis
95.0062°
True anomaly
265.07893°
Mean anomaly
265.0896°
Eccentric anomaly
265.08426°
Mean motion
3.81724 °/min
Orbital period
94.31 mins
BSTAR
0.00020276
Loading maneuver chart data...
Computing Atmospheric mass density...
Loading historical data...
Loading historical data...
Loading historical data...
Loading historical data...
Loading historical data...
Loading historical data...
Loading historical data...

Documentation

Showing up to 5 results
|